FW5301 Weather Reports


time (UTC)temp
F
wind
direction
speed
knots
gust
knots
rain 1hr
in
rain 24hr
in
rain mn
in
humidity
%
barometer
mb
20260507084548 67 88 4.3 10.4 0.00 0.00 0.00 48 1012.5
20260507083025 68 233 1.7 8.7 0.00 0.00 0.00 48 1012.4
20260507081515 67 94 3.5 6.1 0.00 0.00 0.00 50 1012.2
20260507080056 66 108 1.7 7.0 0.00 0.00 0.00 50 1012.3
20260507074545 65 286 1.7 6.1 0.00 0.00 0.00 52 1012.2
20260507073039 64 192 3.5 9.6 0.00 0.00 0.00 53 1012.1
20260507071525 64 319 0.9 7.0 0.00 0.00 0.00 55 1012.0
20260507070014 63 67 0.9 3.5 0.00 0.00 0.00 58 1011.8
20260507064503 62 45 0.9 4.3 0.00 0.00 0.00 58 1011.7
20260507063057 62 39 0.9 4.3 0.00 0.00 0.00 58 1011.6
20260507061544 61 69 1.7 3.5 0.00 0.00 0.00 58 1011.3
20260507060034 61 68 1.7 4.3 0.00 0.00 0.00 58 1011.4
20260507054523 61 114 3.5 6.1 0.00 0.00 0.00 56 1011.7
20260507053013 60 50 0.9 4.3 0.00 0.00 0.00 58 1011.8
20260507051503 58 56 0.0 2.6 0.00 0.00 0.00 62 1011.5
20260507050057 58 57 0.9 3.5 0.00 0.00 0.00 58 1011.5
20260507044546 59 59 0.0 4.3 0.00 0.00 0.00 58 1011.8
20260507043029 59 12 0.0 0.9 0.00 0.00 0.00 57 1011.8
20260507041518 59 34 0.0 0.9 0.00 0.00 0.00 55 1011.7
20260507040008 59 34 0.0 7.0 0.00 0.00 0.00 55 1011.8
20260507034609 58 18 0.0 3.5 0.00 0.00 0.00 55 1011.6
20260507033052 59 16 0.0 0.9 0.00 0.00 0.00 54 1011.2
20260507031542 60 277 1.7 7.0 0.00 0.00 0.00 52 1011.4
20260507030031 61 300 3.5 11.3 0.00 0.00 0.00 51 1011.2
20260507024519 60 249 3.5 6.1 0.00 0.00 0.00 52 1011.0
20260507023007 61 326 0.9 5.2 0.00 0.00 0.00 51 1010.6
20260507021634 61 234 3.5 8.7 0.00 0.00 0.00 51 1010.8
20260507020105 61 266 1.7 7.0 0.00 0.00 0.00 51 1010.8
20260507014522 61 230 3.5 8.7 0.00 0.00 0.00 51 1010.8
20260507013005 60 271 1.7 7.0 0.00 0.00 0.00 52 1010.8
20260507011600 59 181 0.9 3.5 0.00 0.00 0.00 54 1010.7
20260507010050 61 288 0.0 2.6 0.00 0.00 0.00 52 1010.6
20260507004538 62 263 1.7 3.5 0.00 0.00 0.00 50 1010.4
20260507003015 62 272 1.7 4.3 0.00 0.00 0.00 49 1010.5
20260507001607 62 295 0.9 4.3 0.00 0.00 0.00 49 1010.6
20260507000111 62 249 0.9 4.3 0.00 0.00 0.00 49 1010.7
20260506234543 62 258 0.9 4.3 0.00 0.00 0.00 49 1010.9
20260506233020 62 276 0.9 3.5 0.00 0.00 0.00 49 1010.9
20260506231546 62 279 0.9 3.5 0.00 0.00 0.00 48 1011.0
20260506230031 62 258 1.7 6.1 0.00 0.00 0.00 48 1011.0
20260506224519 61 218 2.6 6.1 0.00 0.00 0.00 50 1011.0
20260506223006 57 295 0.0 1.7 0.00 0.00 0.00 57 1011.0
20260506221604 57 300 0.0 0.9 0.00 0.00 0.00 57 1010.9
20260506220031 59 300 0.0 0.9 0.00 0.00 0.00 54 1010.8
20260506214513 61 300 0.0 0.9 0.00 0.00 0.00 51 1010.9
20260506213058 62 267 0.0 2.6 0.00 0.00 0.00 49 1011.0
20260506211548 62 295 0.0 2.6 0.00 0.00 0.00 48 1011.0
20260506210033 63 285 0.0 2.6 0.00 0.00 0.00 47 1011.0
20260506204516 64 281 0.9 7.8 0.00 0.00 0.00 47 1010.8
20260506203029 63 269 0.9 6.1 0.00 0.00 0.00 47 1010.7
20260506201552 63 258 0.9 4.3 0.00 0.00 0.00 48 1010.7
20260506200031 62 268 0.9 3.5 0.00 0.00 0.00 50 1010.8
20260506194507 62 265 0.9 3.5 0.00 0.00 0.00 48 1010.7
20260506193048 62 322 0.9 4.3 0.00 0.00 0.00 49 1010.6
20260506191513 62 284 0.0 2.6 0.00 0.00 0.00 49 1010.7
20260506190037 62 115 0.9 5.2 0.00 0.00 0.00 51 1010.7
20260506184525 62 299 0.0 0.9 0.00 0.00 0.00 50 1010.7
20260506183013 62 243 0.9 5.2 0.00 0.00 0.00 50 1010.4
20260506181510 61 319 0.0 0.0 0.00 0.00 0.00 53 1010.4
20260506180054 62 319 0.0 0.0 0.00 0.00 0.00 51 1010.4
20260506174538 62 342 0.0 0.9 0.00 0.00 0.00 51 1010.3
20260506173047 64 317 0.0 0.0 0.00 0.00 0.00 49 1010.1
20260506171516 65 317 0.0 3.5 0.00 0.00 0.00 47 1010.2
20260506170006 66 268 0.0 2.6 0.00 0.00 0.00 43 1010.3
20260506164554 67 293 0.0 2.6 0.00 0.00 0.00 41 1010.4
20260506163053 68 282 0.0 4.3 0.00 0.00 0.00 40 1010.5
20260506161532 68 230 4.3 7.8 0.00 0.00 0.00 38 1010.7
20260506160022 68 205 4.3 11.3 0.00 0.00 0.00 37 1010.6
20260506154511 70 276 3.5 8.7 0.00 0.00 0.00 36 1010.6
20260506153001 69 217 5.2 9.6 0.00 0.00 0.00 36 1010.8
20260506151552 70 217 4.3 10.4 0.00 0.00 0.00 35 1010.5
20260506150042 72 249 3.5 12.2 0.00 0.00 0.00 34 1010.7
20260506144514 71 252 1.7 4.3 0.00 0.00 0.00 35 1010.7
20260506143002 70 259 2.6 7.0 0.00 0.00 0.00 33 1010.7
20260506141555 70 11 1.7 10.4 0.00 0.00 0.00 32 1010.9
20260506140040 71 306 4.3 12.2 0.00 0.00 0.00 30 1010.9
20260506134529 73 298 3.5 9.6 0.00 0.00 0.00 29 1010.8
20260506133019 74 108 1.7 7.8 0.00 0.00 0.00 34 1010.9
20260506131509 73 117 3.5 8.7 0.00 0.00 0.00 34 1010.9
20260506130120 71 181 6.1 14.8 0.00 0.00 0.00 35 1010.9
20260506124547 71 281 5.2 11.3 0.00 0.00 0.00 35 1010.9
20260506123034 70 210 5.2 10.4 0.00 0.00 0.00 39 1011.3
20260506121523 70 233 2.6 8.7 0.00 0.00 0.00 40 1011.3
20260506120001 70 239 3.5 11.3 0.00 0.00 0.00 40 1011.4
20260506114550 70 292 4.3 10.4 0.00 0.00 0.00 37 1011.4
20260506113038 71 236 4.3 10.4 0.00 0.00 0.00 40 1011.5
20260506111528 70 26 2.6 10.4 0.00 0.00 0.00 38 1011.7
20260506110013 71 107 3.5 9.6 0.00 0.00 0.00 40 1011.6
20260506104508 70 120 3.5 11.3 0.00 0.00 0.00 39 1011.9
20260506103054 70 189 2.6 11.3 0.00 0.00 0.00 43 1012.2
20260506101548 68 127 0.9 6.1 0.00 0.00 0.00 46 1012.1
20260506100020 67 281 2.6 7.0 0.00 0.00 0.00 43 1012.4
20260506094510 68 75 2.6 8.7 0.00 0.00 0.00 46 1012.4
20260506093101 67 255 2.6 7.8 0.00 0.00 0.00 44 1012.5
20260506091549 67 79 2.6 7.8 0.00 0.00 0.00 45 1012.5
20260506090045 64 259 3.5 10.4 0.00 0.00 0.00 47 1012.5